Location: Cheyres
(46.8153°N, 6.7877°E)
Time: 00:21:50
(UTC+00:00)

Tiros 1 - Pass Details

Date: 26 May 2022
Orbit: 629 x 663 km, 48.4° (Epoch: 05 July)

Event Time Altitude Azimuth Distance (km) Brightness Sun altitude
Exits shadow 23:42:33 24° 109° (ESE) 1,304 8.5 -21.9°
Drops below altitude 10° 23:45:01 10° 83° (E) 2,019 9.8 -21.8°
Sets 23:47:34 0° 73° (ENE) 2,936 10.8 -21.8°
